Location: Elk Falls Fire Department
(37.3739°N, 96.1912°W)
Time: 00:39:32
(UTC+00:00)

Daily predictions for brighter satellites

Satellite Brightness Start Highest point End
(mag) Time Altitude Azimuth Time Altitude Azimuth Time Altitude Azimuth
FALCON 9 R/B 4.1 01:22:35 10° W 01:28:03 44° SSW 01:45:48 10° SE
Cosmos 1763 Rocket 3.4 01:40:18 10° NNW 01:45:24 78° ENE 01:50:30 10° SSE
ERS-2 2.1 01:42:37 10° NNE 01:46:13 66° ESE 01:49:49 10° S
OBJECT-B 2.0 01:43:39 10° SE 01:46:23 25° ENE 01:49:07 10° NNE
NOSS 3-1 (A) 4.4 01:39:51 10° NNW 01:47:31 60° NE 01:56:15 10° SE
FALCON 9 DEB 4.5 01:44:48 10° NNW 01:47:50 28° NE 01:50:51 10° E
Helios 1A Rocket 2.9 01:44:52 10° SSE 01:48:56 69° ENE 01:53:04 10° N
CSL-04 Rocket 3.7 01:43:40 10° SSE 01:48:57 87° ENE 01:54:17 10° NNW
PEGASUS R/B 4.3 01:46:34 10° S 01:49:46 51° WSW 01:52:06 10° NNW
Cosmos 841 Rocket 4.1 01:45:19 10° N 01:50:08 38° ENE 01:54:54 10° SE
Cosmos 482 Debris 4.0 01:48:57 10° NNW 01:51:00 28° NNE 01:52:41 10° E
Lacrosse 5 rocket 1.5 01:47:54 10° NW 01:52:12 73° NE 01:56:41 10° SE
Resurs 01 Rocket 3.6 01:50:47 10° E 01:52:56 13° ENE 01:55:05 10° NE
SL-08 RB Rocket 4.3 01:50:13 10° S 01:54:45 60° W 01:59:16 10° NNW
Cosmos 468 Rocket 4.1 01:50:03 10° NNW 01:55:14 82° WSW 02:00:26 10° SSE
Cosmos 1766 Rocket 3.5 01:53:19 10° N 01:57:42 73° E 02:02:06 10° SSE
SJ-6B 3.3 01:54:07 10° SE 01:57:42 42° ENE 02:01:23 10° N
Cosmos 2221 3.0 01:53:53 10° SSE 01:57:52 40° E 02:01:55 10° NNE
NOSS 3-1 (C) 4.4 01:55:36 10° NW 02:03:29 77° WSW 02:12:24 10° SSE
Cosmos 1174 4.2 02:02:26 10° NNW 02:05:57 37° NE 02:08:21 14° ESE
IRIS 4.1 02:05:25 10° W 02:07:43 60° NNW 02:10:29 10° ENE
BREEZE-M R/B 2.2 02:04:37 10° SW 02:07:56 49° SE 02:10:20 10° ENE
MetOp-A 4.2 02:06:52 10° SSE 02:12:13 87° WSW 02:17:37 10° NNW
CZ-4 R/B 4.3 02:14:29 10° SW 02:16:57 15° W 02:19:25 10° WNW
Ariane Rocket 3.2 02:14:50 11° SSE 02:19:31 52° ENE 02:24:26 10° N
Meteor 2-2 Rocket 4.2 02:14:51 10° S 02:20:32 80° E 02:26:11 10° N
Aureole 1 Rocket 4.5 02:15:45 10° SW 02:20:38 43° WNW 02:24:27 10° N
USA 186 2.3 02:18:30 10° S 02:21:13 46° W 02:23:46 10° NNW
SL-4 R/B 4.3 02:20:34 10° NNW 02:23:51 20° NNE 02:27:15 10° ENE
Cosmos 1603 3.7 02:20:55 10° NNW 02:26:37 82° ENE 02:31:30 14° SSE
SPOT 3 Rocket 4.5 02:23:44 17° ESE 02:26:49 31° ENE 02:31:18 10° N
Cosmos 1814 Rocket 4.0 02:27:06 10° NNW 02:32:18 65° ENE 02:35:59 19° SSE
BREEZE-M DEB (TANK) 2.3 02:33:45 10° NW 02:35:55 49° NE 02:37:09 28° E
Cosmos 1606 2.6 02:35:31 15° S 02:38:25 58° E 02:42:08 10° NNE
IRS-1A Rocket 4.3 02:34:29 12° SSE 02:39:50 86° ENE 02:45:40 10° NNW
Cosmos 1842 Rocket 4.1 02:35:58 10° SSW 02:40:23 62° W 02:44:51 10° N
ARIANE 5 R/B 4.5 02:41:35 14° ENE 02:42:18 14° ENE 02:44:39 10° NNE
GENESIS II 4.2 02:38:57 10° NW 02:42:50 75° WSW 02:44:49 27° SSE
Cosmos 1408 Rocket 3.9 02:40:05 10° NNW 02:44:27 66° W 02:48:36 11° S
ASTRO E2 3.4 02:44:24 10° WSW 02:48:01 34° S 02:48:45 31° SSE
Cosmos 1486 Rocket 4.1 02:45:20 10° S 02:50:31 57° ESE 02:55:44 10° NNE
Cosmos 1933 4.1 02:50:59 31° E 02:51:12 31° E 02:54:48 10° NNE
Cosmos 968 Rocket 3.4 02:50:25 10° SSW 02:55:40 81° ESE 03:00:56 10° NNE
Cosmos 1862 4.0 02:52:46 10° NNW 02:56:40 51° W 02:59:42 16° SSW
Resurs 1-3 3.8 02:55:10 20° S 02:58:11 67° W 03:02:32 10° NNW
Cosmos 921 Rocket 3.7 02:55:54 10° NNW 03:00:02 50° WSW 03:02:38 20° S
Cosmos 1805 Rocket 3.8 02:56:21 10° N 03:00:33 47° E 03:01:28 40° ESE
Cosmos 1943 4.0 03:01:56 10° NW 03:07:19 46° WSW 03:11:21 17° S
Terra 3.8 03:07:15 14° ENE 03:07:30 14° ENE 03:09:49 10° NE
DELTA 2 R/B (1) 3.8 03:03:34 10° W 03:09:07 70° N 03:12:29 24° E
Cosmos 2208 Rocket 4.3 03:03:50 10° NNW 03:09:14 69° WSW 03:12:14 27° S
X-37B 3.0 03:07:30 10° WNW 03:10:04 22° N 03:12:05 13° NE
Cosmos 1844 Rocket 2.6 03:06:59 10° SSW 03:12:33 85° WNW 03:18:09 10° NNE
Cosmos 1743 Rocket 4.0 03:09:49 10° NNW 03:14:05 59° W 03:16:10 28° SSW
OBJECT-B 3.8 03:17:11 10° WSW 03:18:35 12° W 03:19:59 10° WNW
Cosmos 1437 Rocket 3.3 03:16:57 25° SSW 03:18:55 56° W 03:22:45 10° N
Cosmos 1386 Rocket 4.3 03:15:18 10° N 03:21:21 79° E 03:23:50 38° SSE
Cosmos 1745 Rocket 3.9 03:16:11 10° N 03:22:24 82° E 03:25:04 37° SSE
CARTOSAT-1 4.4 03:22:52 34° ENE 03:22:52 34° ENE 03:26:35 10° N
Cosmos 1844 3.7 03:18:13 10° SSW 03:23:58 85° WNW 03:29:43 10° NNE
Cosmos 1782 3.9 03:25:54 32° NE 03:25:54 32° NE 03:28:29 10° NNE
Cosmos 1709 Rocket 4.2 03:19:43 10° N 03:25:38 48° E 03:26:53 42° ESE
MetOp-B 4.0 03:25:23 44° SSE 03:27:09 88° ENE 03:32:32 10° NNW
Spot 2 Rocket 3.7 03:27:03 48° E 03:27:42 51° ENE 03:32:35 10° N
Resurs 01 Rocket 2.2 03:27:23 35° SSW 03:28:56 53° W 03:33:18 10° NNW
Cosmos 2315 Rocket 4.1 03:27:22 43° SE 03:29:11 58° E 03:35:26 10° NNE
Lacrosse 5 rocket 4.0 03:28:54 10° W 03:30:54 13° WSW 03:32:35 11° SW
NOSS 3-3 (A) 4.0 03:33:32 47° ESE 03:33:32 47° ESE 03:39:02 10° NE
NOSS 3-3 (C) 4.0 03:33:43 46° E 03:33:43 46° E 03:39:08 10° NE
Cosmos 1666 Rocket 4.0 03:29:56 10° N 03:33:45 47° ENE 03:33:45 47° ENE
S3M 4.4 03:30:15 14° SSW 03:35:48 65° W 03:42:09 10° N
Landsat 7 4.2 03:36:32 44° SSW 03:37:48 60° W 03:42:30 10° NNW
CRYOSAT 2 4.2 03:37:59 70° SE 03:38:28 78° E 03:43:23 10° N
Cosmos 1503 Rocket 3.9 03:39:08 45° SSW 03:40:45 87° WNW 03:45:59 10° NNE
ATLAS 5 CENTAUR R/B 3.3 03:41:03 10° NNW 03:46:22 37° NE 03:47:40 33° ENE
Cosmos 1833 Rocket 4.4 03:45:09 10° N 03:49:04 19° NE 03:49:40 18° ENE
ERS-1 Rocket 3.2 03:51:22 55° ENE 03:51:22 55° ENE 03:56:04 10° N
SPOT 1/Viking Rocket 3.7 03:52:30 56° SSW 03:53:22 66° WSW 03:58:34 10° NNW
Milstar 3 3.9 03:44:08 10° SW 03:55:37 38° S 03:55:37 38° S
CZ-4C R/B 4.2 03:50:30 10° NNW 03:56:45 29° NE 03:59:54 23° E
Sich 1 4.1 03:59:47 10° NNW 04:03:48 39° W 04:03:54 39° W
SL-4 R/B 2.7 03:59:31 10° NW 04:03:25 61° NNW 04:03:25 61° NNW
Cosmos 2082 Rocket 4.2 04:12:53 10° NNE 04:16:16 16° NE 04:16:34 16° ENE
ARIANE 5 R/B 3.7 04:19:07 41° WNW 04:19:07 41° WNW 04:22:31 10° NNW
SPOT 5 3.3 04:23:18 62° NW 04:23:18 62° NW 04:27:42 10° NNW
Cosmos 2278 Rocket 2.9 04:38:30 47° NNE 04:38:30 47° NNE 04:42:29 10° NNE
Terra 2.9 04:46:08 41° NW 04:46:08 41° NW 04:49:24 10° NNW
Cosmos 2154 Rocket 4.4 04:50:24 10° N 04:55:39 56° NE 04:55:39 56° NE
Cosmos 2184 Rocket 4.3 04:58:59 10° N 05:04:20 64° NW 05:04:20 64° NW
Cosmos 1943 Rocket 4.5 05:13:53 14° NE 05:13:53 14° NE 05:14:45 10° NE
NOSS 3-4 (A) 4.5 05:12:41 10° NNW 05:19:30 47° NE 05:20:01 46° ENE
NOSS 3-4 (C) 4.5 05:12:48 10° NNW 05:19:37 47° NE 05:20:08 46° ENE
Nadezhda 1 Rocket 4.4 05:22:01 58° NW 05:22:01 58° NW 05:27:23 10° N
ATLAS 5 CENTAUR R/B 3.7 05:25:29 10° NW 05:29:11 33° WNW 05:29:11 33° WNW
ATLAS 2AS CENTAUR R/B 3.9 05:26:28 10° NNW 05:33:00 34° NE 05:33:58 32° ENE
USA 215 4.2 05:32:05 36° ENE 05:33:25 39° NNE 05:39:24 10° NNW
Cosmos 1833 Rocket 3.9 05:27:51 10° NNW 05:31:21 37° NW 05:31:21 37° NW
SJ 16-02 3.8 05:37:53 20° NNW 05:37:53 20° NNW 05:39:40 10° N
CZ-4C R/B 3.1 05:38:20 10° NW 05:45:05 68° WNW 05:45:05 68° WNW
Cosmos 2082 Rocket 3.6 05:55:19 10° NNW 05:58:24 34° NNW 05:58:24 34° NNW
Cosmos 2369 Rocket 3.6 06:36:27 32° NE 06:36:27 32° NE 06:39:26 10° NNE
SeaSat 1 4.3 06:44:32 10° N 06:47:12 27° NNW 06:47:12 27° NNW
Cosmos 1943 Rocket 3.6 06:55:24 33° NNW 06:55:24 33° NNW 06:59:03 10° N
USA 215 4.4 07:19:24 31° WNW 07:19:24 31° WNW 07:22:40 10° NW
SL-16 R/B 3.8 07:21:24 31° E 07:22:41 34° ENE 07:28:12 10° N
ATLAS CENTAUR R/B 4.4 07:27:08 11° NE 07:27:08 11° NE 07:27:18 10° NE
ATLAS 2AS CENTAUR R/B 3.8 07:17:19 10° NW 07:21:22 33° WNW 07:21:22 33° WNW
CZ-2D R/B 3.0 07:39:28 10° NNE 07:43:39 47° NE 07:43:39 47° NE
Cosmos 1934 Rocket 4.4 07:45:51 10° NNW 07:50:37 53° NW 07:50:37 53° NW
Cosmos 1727 Rocket 4.3 07:53:26 57° E 07:53:29 57° E 07:59:40 10° NNE
USA 281 3.5 08:16:27 50° WNW 08:16:27 50° WNW 08:21:45 10° NNW
IDEFIX/ARIANE 42P 4.3 08:11:11 10° NE 08:15:21 23° E 08:16:34 22° ESE
Resurs 1-4 Rocket 2.5 08:12:44 10° N 08:17:04 57° NNW 08:17:04 57° NNW
Cosmos 2369 Rocket 4.2 08:18:13 17° NW 08:18:24 17° NW 08:21:56 10° NNW
ADEOS II 2.5 08:14:50 10° NNE 08:19:54 54° E 08:19:54 54° E
Lacrosse 5 2.6 08:21:53 46° E 08:21:53 46° E 08:25:54 10° NE
Cosmos 1726 4.2 08:20:19 10° N 08:22:17 26° NNE 08:22:17 26° NNE
ARGOS Delta rocket 4.3 08:22:08 10° NNE 08:25:57 56° NE 08:25:57 56° NE
Okean 1 Rocket 4.0 08:25:52 10° N 08:29:00 45° N 08:29:00 45° N
ISS -0.7 08:33:01 12° NNW 08:33:01 12° NNW 08:34:09 10° N
Meteor 2-20 Rocket 4.3 08:36:07 74° SW 08:36:39 82° W 08:42:51 10° N
SL-19 R/B 4.2 08:32:22 10° N 08:38:02 65° WNW 08:38:02 65° WNW
Cosmos 1153 Rocket 4.4 08:32:51 10° N 08:39:13 74° W 08:39:53 68° SW
Cosmos 44 Rocket 4.0 08:36:33 10° NNW 08:41:41 56° ENE 08:45:30 17° SE
Cosmos 1269 Rocket 3.9 08:38:12 10° NNW 08:43:09 75° WNW 08:43:09 75° WNW
IRS-1D 3.5 08:40:21 10° NNE 08:45:42 78° ESE 08:46:17 69° SSE
Cosmos 1953 4.3 08:42:45 10° NNE 08:46:04 25° ENE 08:47:43 19° ESE
Helios 1B rocket 4.3 08:45:53 10° NNW 08:48:01 22° NW 08:48:01 22° NW
Cosmos 1697 Rocket 4.5 08:47:24 16° SE 08:50:11 24° ESE 08:54:32 10° NE
DELTA 2 DEB (DPAF) 4.1 08:51:54 80° NE 08:51:54 80° NE 08:56:17 10° N
Gblst 52 Del rocket 4.1 08:49:24 10° NW 08:55:28 89° NE 09:01:01 10° SE
CZ-2C R/B 3.4 08:57:58 14° ESE 08:57:58 14° ESE 08:58:32 10° E
Cosmos 1459 Rocket 3.9 08:50:10 10° N 08:56:29 86° E 08:58:58 39° S
Cosmos 1025 Rocket 4.2 08:58:52 32° SE 09:00:02 39° E 09:04:04 10° NNE
COSMOS 2455 4.1 08:55:26 10° NNW 09:01:04 40° NE 09:06:40 10° SE
Cosmos 2173 Rocket 3.8 08:56:27 10° N 09:02:36 83° W 09:04:56 41° S
ATLAS CENTAUR R/B 3.7 09:03:15 12° NW 09:03:15 12° NW 09:04:25 10° NNW
OAO 3 Rocket 3.2 09:04:20 64° SSE 09:04:20 64° SSE 09:08:54 10° ESE
Lacrosse 4 Rocket 4.2 09:02:51 10° SE 09:04:39 12° ESE 09:06:27 10° E
Cosmos 371 Rocket 3.6 09:04:41 48° SSE 09:05:45 60° ESE 09:10:34 10° NNE
SL-16 R/B 3.2 09:06:28 36° W 09:06:28 36° W 09:11:52 10° NNW
Cosmos 2227 Rocket 4.1 09:03:02 10° N 09:07:58 30° ENE 09:12:51 10° ESE
CZ-4C R/B 3.7 09:08:32 46° SSE 09:09:46 74° ENE 09:14:06 10° N
Cosmos 1802 Rocket 3.9 09:04:05 10° N 09:10:15 89° ENE 09:13:39 29° S
Cosmos 2297 Rocket 3.4 09:06:52 10° N 09:12:14 42° ENE 09:17:34 10° SE
KORONAS-FOTON 3.7 09:12:29 81° ESE 09:12:33 82° E 09:16:29 10° N
Gbstr 26 Del rocket 4.1 09:09:54 10° WNW 09:21:28 - SSE 09:13:56 38° W
Cosmos 1707 4.2 09:16:42 25° NW 09:16:42 25° NW 09:18:59 10° NNW
Cosmos 1674 2.6 09:15:50 88° NNW 09:15:50 88° NNW 09:19:39 10° N
Cosmos 1758 4.0 09:12:22 10° NNW 09:15:33 43° NW 09:15:33 43° NW
Cosmos 1455 Rocket 3.0 09:12:06 10° N 09:16:26 77° E 09:17:47 43° SSE
BREEZE-M R/B 4.1 09:12:06 10° NW 09:17:01 80° SW 09:28:04 10° SE
BREEZE-M DEB (TANK) 3.6 09:19:16 34° SE 09:19:16 34° SE 09:22:30 10° SE
Cosmos 2100 Rocket 4.1 09:12:22 10° NNW 09:18:30 57° W 09:20:38 39° SSW
Milstar 3 4.2 09:23:10 20° S 09:23:10 20° S 09:27:06 10° SSE
IRS-P3 4.1 09:17:02 10° NNE 09:22:25 81° ESE 09:24:50 34° S
USA 276 2.6 09:23:04 58° NNE 09:23:04 58° NNE 09:25:45 10° NE
CZ-2D R/B 3.8 09:20:49 10° NNW 09:24:19 18° WNW 09:24:58 18° WNW
Cosmos 2123 Rocket 3.9 09:21:53 35° SSW 09:24:37 76° W 09:30:49 10° N
Tianhe-1 2.3 09:26:05 34° NNW 09:26:34 36° N 09:29:31 10° ENE
Cosmos 1315 Rocket 2.7 09:23:08 10° NNW 09:27:04 62° W 09:27:09 62° WSW
ARIANE 5 R/B 2.7 09:23:04 10° NNE 09:28:14 71° ESE 09:31:04 27° S
USA 234 4.4 09:26:33 10° ENE 09:32:22 34° SE 09:36:58 15° S
ADEOS Rocket 3.4 09:29:58 19° S 09:35:06 62° W 09:42:39 10° NNW
Cosmos 1908 3.1 09:35:38 10° N 09:39:30 83° W 09:41:12 32° S
Cosmos 1975 Rocket 4.0 09:42:07 30° W 09:42:27 30° WNW 09:46:19 10° NNW
COSMOS 2441 4.3 09:38:16 10° N 09:43:12 82° WNW 09:45:58 26° SSW
BREEZE-M DEB (TANK) 4.1 09:40:28 25° W 09:43:32 60° NNW 09:59:30 10° ENE
Cosmos 2219 3.5 09:38:06 10° NNW 09:43:48 68° ENE 09:49:29 10° SSE
SL-14 R/B 3.5 09:41:41 24° S 09:43:50 65° E 09:47:42 10° NNE
IDEFIX/ARIANE 42P 3.2 09:50:09 10° N 09:54:59 38° WNW 09:57:22 25° WSW
Cosmos 614 Rocket 3.8 09:52:51 10° NNW 09:57:57 85° WSW 10:03:03 10° SSE
ADEOS II 3.7 09:55:46 10° NNW 09:59:11 18° WNW 10:00:51 16° W
Cosmos 1624 Rocket 4.5 09:54:37 12° S 09:59:30 61° ESE 10:04:45 10° NNE
Iridium 2 3.6 09:59:32 25° SSW 10:01:35 63° W 10:05:21 10° N
SL-08 R/B 3.2 09:57:10 10° S 10:01:56 70° WSW 10:06:38 10° NNW
Cosmos 2360 4.2 09:58:17 17° SSW 10:02:44 87° ESE 10:08:30 10° NNE
Lacrosse 5 3.3 10:01:05 16° W 10:04:10 27° NW 10:08:29 10° NNE
Cosmos 407 Rocket 4.2 10:01:25 10° N 10:06:42 59° ENE 10:11:58 10° SSE
Cosmos 1626 2.8 10:06:20 27° WSW 10:07:33 34° W 10:10:57 10° NNW
Cosmos 1656 4.5 10:06:32 20° WSW 10:09:25 33° WNW 10:14:22 10° N
Spot 4 Rocket 4.0 10:07:22 10° N 10:12:31 73° WNW 10:17:22 11° SSW
Timation 2 Rocket 3.8 10:07:09 10° NNW 10:13:07 73° WSW 10:19:06 10° SSE
Cosmos 2056 Rocket 3.4 10:14:23 11° SSW 10:19:23 89° WNW 10:24:31 10° NNE
Cosmos 1953 3.8 10:19:26 10° NW 10:22:14 19° W 10:23:21 17° WSW
Cosmos 2251 Rocket 4.1 10:18:17 10° NW 10:23:00 35° W 10:27:41 10° SSW
CZ-3B R/B 3.7 10:20:41 11° SSW 10:23:21 19° SSE 10:28:06 10° ESE
CZ-4B R/B 4.4 10:19:45 10° N 10:23:59 30° WNW 10:27:23 14° WSW
Cosmos 1340 2.5 10:21:03 10° S 10:24:46 84° W 10:28:32 10° N
Delta 2 Rocket 4.4 10:25:07 17° SW 10:25:37 17° SSW 10:27:52 10° SSE
PSLV R/B 3.9 10:22:35 10° NNE 10:26:45 65° ESE 10:30:54 10° S
Cosmos 2285 Rocket 4.0 10:24:04 10° SSW 10:30:24 75° WNW 10:36:52 10° NNE
Cosmos 1371 Rocket 4.1 10:26:11 11° SSW 10:31:15 60° WNW 10:36:26 10° N
Cosmos 1697 Rocket 3.2 10:29:09 13° SW 10:33:49 42° WNW 10:39:08 10° N
CZ-2C R/B 0.8 10:32:13 14° WSW 10:34:48 56° S 10:38:05 10° ESE
APEX 4.1 10:31:04 10° NNW 10:35:29 73° ENE 10:41:02 10° SSE
PAYLOAD A 4.0 10:31:01 10° N 10:35:40 53° WNW 10:40:13 10° SSW
Cosmos 2233 Rocket 4.5 10:32:20 10° NNW 10:38:00 38° W 10:43:36 10° SSW
USA 129 3.7 10:37:29 15° WSW 10:38:06 16° W 10:39:45 10° NW
CZ-2C R/B 2.7 10:33:34 10° N 10:38:32 56° WNW 10:43:33 10° SSW
Cosmos 1980 Rocket 2.2 10:36:58 10° SSW 10:42:39 72° WNW 10:48:20 10° NNE
Lacrosse 4 Rocket 1.7 10:38:23 10° SW 10:42:47 57° WNW 10:47:12 10° NNE
Cosmos 2369 4.1 10:38:36 10° SW 10:44:06 48° WNW 10:49:39 10° N
ATLAS 2A CENTAUR R/B 4.1 10:41:00 10° SSW 10:45:39 26° SE 10:58:22 10° E
COSMOS 2455 3.6 10:41:39 10° NW 10:46:48 30° WSW 10:51:56 10° SSW
ALOS 2.3 10:42:07 10° N 10:46:49 82° WNW 10:51:28 10° SSW
OAO 3 Rocket 3.8 10:42:45 10° W 10:47:17 38° SSW 10:51:50 10° SE
Cosmos 2278 3.8 10:42:57 10° SSW 10:48:38 73° WNW 10:54:22 10° NNE
Cosmos 1606 Rocket 3.6 10:45:53 10° N 10:50:16 88° E 10:54:41 10° S
Meteor 2-5 Rocket 4.4 10:45:31 10° SW 10:50:53 38° WNW 10:56:10 10° N
Cosmos 2227 Rocket 2.8 10:46:55 10° NW 10:51:59 35° WSW 10:57:02 10° SSW
Cosmos 1484 Rocket 2.9 10:48:14 10° NNE 10:52:14 84° E 10:56:09 10° S
Cosmos 1726 Rocket 3.9 10:49:07 10° N 10:53:28 73° E 10:57:50 10° SSE
Cosmos 220 Rocket 4.3 10:51:08 10° S 10:55:33 76° ESE 10:59:59 10° NNE
Cosmos 2297 Rocket 3.2 10:51:30 10° NW 10:55:57 24° WSW 11:00:24 10° SSW
METEOR-M 4.2 10:51:25 10° NNE 10:56:48 88° ESE 11:02:09 10° SSW
CZ-2C R/B 3.9 10:53:37 10° NNW 10:57:03 28° WNW 11:00:30 10° SW
Cosmos 2082 3.8 10:56:28 10° NNW 11:02:04 60° WSW 11:07:39 10° S
